Theta_e
306 306 305 304 304 304 305 304 304 304 306 309 309 310 316 318 318 316 316 319 321 326 329 326 325 327 326 322 322 324 325 325 324 322 322 323 325 324 324 324 325 326 326 324 328 327 323 322 324 324 324 324 323 327 328 323 323 326 324 324 331 341 343 329 321 324 327 325 326 325 323 325 323 324 325 323 324 323 320 323 326 321 318 319 318 314 319
305 305 305 304 304 304 304 304 303 304 306 307 308 313 316 316 316 319 320 318 320 325 328 326 325 326 325 323 321 321 320 321 321 320 321 324 325 324 325 325 323 323 324 326 328 326 322 321 325 328 328 328 329 331 330 326 323 324 328 332 329 330 336 329 319 320 322 320 323 323 323 325 325 326 326 325 327 326 324 330 330 322 320 321 317 313 318
305 305 305 304 304 304 304 304 303 304 306 309 310 312 315 316 317 320 321 320 320 322 321 321 323 325 326 325 323 321 320 320 319 318 320 323 323 325 326 324 322 323 324 326 328 327 323 323 326 327 327 329 331 331 331 327 322 333 345 343 330 333 341 334 320 315 316 317 318 319 322 325 326 328 326 325 328 326 324 327 322 318 323 323 317 315 321
305 306 305 305 305 305 305 304 303 304 308 310 311 311 315 320 323 324 323 322 322 321 320 321 323 325 326 325 322 322 323 323 321 319 319 320 321 323 323 323 324 324 324 328 330 328 325 326 331 332 329 329 328 329 332 332 335 352 355 342 339 346 345 343 335 323 319 323 327 330 331 326 322 325 324 324 327 328 330 327 319 320 324 320 323 329 324
305 306 305 305 305 305 305 304 303 305 309 311 311 312 316 320 323 324 324 324 324 323 322 323 324 325 324 324 323 324 324 325 324 322 321 321 321 322 323 323 324 324 328 331 330 329 331 331 332 332 331 333 329 328 334 340 348 359 346 336 350 350 332 336 347 336 330 333 336 335 333 327 324 325 323 324 327 328 326 323 324 331 322 315 335 348 328
306 305 305 305 305 305 305 304 303 305 309 311 312 316 318 320 321 320 320 323 326 325 324 324 324 324 323 323 323 324 324 326 327 325 324 322 321 323 325 324 324 325 326 327 329 334 335 333 333 332 334 338 334 329 331 334 341 346 333 331 353 351 329 328 334 331 330 331 330 332 333 330 330 328 324 325 327 326 325 328 334 334 321 319 342 352 333
305 305 305 305 304 305 305 304 303 304 309 310 311 315 316 317 319 318 317 321 324 324 324 323 322 323 325 325 323 323 324 324 323 323 323 324 324 325 327 327 326 325 325 331 344 342 330 328 336 342 341 339 336 333 332 328 329 333 331 334 344 341 332 332 330 326 327 328 328 332 331 328 328 328 328 327 326 326 326 331 335 332 326 330 340 342 337
305 305 306 305 305 305 305 304 303 304 308 309 309 311 312 314 316 316 317 321 323 323 322 322 322 321 324 325 322 320 323 322 321 321 323 326 327 325 326 328 327 325 325 333 342 336 328 330 337 341 340 339 340 340 336 330 328 330 332 335 337 333 331 335 335 325 323 327 329 329 329 328 325 325 330 329 326 326 327 329 332 330 330 335 336 335 335
305 305 305 305 304 305 305 305 304 304 307 309 308 308 308 310 311 311 316 322 324 323 321 321 322 322 321 323 321 320 321 321 320 321 321 322 326 325 325 327 326 325 328 331 329 324 325 329 328 329 331 331 334 334 332 331 332 336 336 334 338 341 334 332 333 323 319 326 329 327 328 328 323 324 329 328 326 327 327 330 332 331 331 337 334 328 330
305 305 305 305 305 305 305 305 304 304 305 307 307 307 307 308 309 309 314 320 320 320 319 320 322 321 319 320 320 319 320 318 319 323 322 321 323 323 324 325 326 328 331 330 325 321 322 323 323 324 325 324 324 325 326 328 333 342 343 336 341 348 336 328 328 320 318 325 329 326 325 322 319 323 330 331 330 329 328 330 334 335 334 333 328 325 333
305 305 305 305 305 305 305 305 304 304 305 305 306 306 305 306 308 309 314 317 316 317 319 320 321 320 317 317 317 318 319 318 319 324 324 323 322 322 323 324 326 328 329 324 320 319 319 320 321 322 323 322 322 323 324 327 332 338 342 340 342 345 340 336 332 322 319 326 329 325 322 318 321 329 335 332 331 330 328 330 335 338 336 332 330 333 341
305 305 305 305 305 304 305 305 304 304 304 304 305 306 305 305 307 309 314 315 314 315 317 316 317 317 315 316 317 317 318 318 318 319 321 321 322 322 323 325 326 327 324 318 318 319 321 323 324 325 325 324 323 324 325 328 329 329 332 338 342 344 342 340 334 325 323 327 326 322 319 321 329 336 333 329 329 332 333 335 338 337 335 337 337 336 340
305 305 305 305 305 305 305 305 305 304 303 304 305 305 305 305 307 309 313 314 314 315 315 313 314 315 315 315 316 316 317 317 317 318 319 321 322 323 323 323 323 323 319 316 318 324 329 334 335 333 333 332 330 328 326 326 326 325 327 333 340 344 341 336 331 327 325 324 322 320 322 329 337 336 331 327 330 332 330 329 335 338 336 337 337 335 339
305 305 305 305 305 305 305 305 305 304 303 304 304 305 305 306 307 309 310 313 314 314 313 313 313 315 315 314 315 316 316 317 318 320 320 320 321 323 322 321 319 317 315 317 323 330 335 338 335 331 332 333 329 327 327 326 324 325 329 332 337 344 342 335 329 327 327 323 320 322 325 328 331 336 336 332 332 336 332 325 333 346 342 335 337 340 341
305 305 305 305 305 305 305 305 305 304 303 303 304 305 305 305 306 308 309 312 314 313 312 313 314 314 314 314 314 316 317 318 319 320 320 320 320 321 319 318 316 315 316 321 329 334 335 332 327 323 323 325 323 324 327 328 324 324 326 328 333 340 346 342 330 325 328 324 321 323 323 321 328 339 341 332 329 337 338 328 329 344 344 335 337 342 343
305 305 304 305 305 305 305 305 305 304 303 303 304 304 305 305 305 307 309 311 311 309 311 312 311 312 313 313 314 315 316 317 318 319 323 323 321 320 316 313 314 317 320 326 333 337 335 330 326 323 323 325 324 323 324 325 324 323 325 327 329 334 344 346 332 324 326 324 320 323 322 322 335 345 338 329 326 332 336 325 323 340 348 337 334 340 342
304 305 305 305 305 305 305 305 305 304 304 303 303 304 304 305 305 306 308 310 309 308 310 310 309 310 312 312 312 314 315 315 316 319 323 323 319 317 313 312 316 320 323 332 336 333 333 332 327 324 325 328 326 323 323 323 322 322 325 327 330 331 335 335 326 323 325 323 321 323 324 327 340 342 330 324 327 330 329 319 320 340 353 339 336 341 343
304 304 305 305 305 305 305 305 304 305 304 303 303 303 304 304 305 306 308 309 308 307 309 309 309 310 311 311 311 312 313 314 315 315 317 318 317 313 310 313 319 321 324 333 337 332 329 329 326 324 325 326 325 323 324 324 321 323 327 328 329 330 331 329 325 323 323 323 321 321 324 331 338 334 325 324 327 327 322 318 327 347 353 340 338 342 343
303 304 305 305 305 305 305 305 304 304 304 303 303 303 303 303 304 305 307 307 307 306 307 308 308 308 310 310 310 311 312 312 312 312 314 317 316 311 310 314 318 320 324 330 333 330 327 326 327 326 324 324 326 325 324 325 324 325 328 327 324 327 327 325 324 323 323 324 322 320 323 329 330 326 324 325 325 322 324 334 348 353 348 341 339 339 339
303 303 304 305 305 304 305 305 304 304 305 304 303 303 303 303 303 305 306 306 306 306 307 307 306 307 309 310 310 311 311 311 311 309 311 314 312 311 318 323 319 319 325 330 330 330 328 327 330 329 325 325 327 325 324 326 327 325 328 328 326 328 325 321 323 325 324 324 322 318 320 325 326 325 327 327 325 327 335 348 350 342 339 340 338 337 337
302 303 304 304 305 304 305 305 304 304 304 304 303 303 303 303 303 303 305 306 306 306 306 307 307 307 308 309 308 309 309 309 309 308 308 310 309 312 320 323 317 317 323 326 326 326 325 328 330 329 328 329 328 325 324 325 324 323 326 329 329 329 324 321 324 326 322 320 322 324 327 328 325 327 332 332 332 334 335 338 338 336 335 336 337 338 337
301 302 303 304 305 305 304 304 304 304 304 304 304 303 303 303 303 303 304 305 306 306 306 306 306 306 306 306 307 307 307 307 307 307 307 309 310 312 314 315 314 316 318 319 322 322 321 324 327 329 330 331 330 329 326 323 322 325 326 325 324 327 328 325 325 328 325 323 326 332 335 331 325 326 332 332 331 332 330 329 333 337 335 334 337 339 335
301 301 302 303 304 304 305 305 304 304 304 304 304 304 304 303 303 303 304 305 305 306 305 305 305 305 306 307 307 307 306 306 307 308 307 309 311 311 313 313 314 315 315 315 317 318 318 321 324 327 330 330 330 331 329 324 326 328 328 324 322 325 328 329 329 331 330 328 330 331 331 329 327 326 327 326 325 327 329 330 331 334 334 333 335 337 335
301 301 302 302 303 304 305 305 304 304 304 304 303 303 303 303 303 303 305 305 305 305 305 305 305 306 307 307 306 305 305 306 307 308 308 309 310 312 313 313 312 313 315 315 314 314 316 319 320 323 327 327 327 329 330 328 328 327 326 328 326 323 324 326 329 330 326 327 332 332 329 329 329 327 326 326 326 326 328 330 332 334 332 331 332 334 333
301 301 301 302 303 304 304 305 304 304 304 304 303 303 303 303 303 303 305 305 305 305 306 306 305 305 306 305 305 304 305 306 306 306 307 309 310 311 313 312 311 312 313 313 313 314 316 317 318 320 322 323 324 327 329 328 326 323 324 328 328 325 326 327 328 328 326 329 333 329 325 329 331 328 327 328 328 328 329 330 332 332 330 329 331 332 331
301 301 301 301 303 304 304 304 304 304 304 304 303 302 303 304 304 304 305 306 305 304 306 307 306 305 305 305 305 304 305 305 305 305 306 307 308 310 311 311 311 311 311 312 312 314 315 317 317 318 320 321 322 325 326 324 322 321 322 324 324 325 326 325 325 326 328 330 329 324 324 329 331 327 327 329 328 329 329 329 328 330 329 328 329 329 329
301 301 301 301 303 303 304 304 304 304 304 304 303 303 304 304 304 304 304 305 305 304 305 306 306 305 305 304 304 304 304 305 306 306 306 306 307 308 309 310 310 311 311 311 313 314 315 317 317 317 319 319 319 319 320 319 319 320 322 322 323 324 326 325 324 325 326 327 326 324 324 326 326 324 327 329 327 327 330 330 329 331 331 330 329 328 328
301 301 301 301 302 303 304 304 304 304 304 303 303 304 305 304 303 303 303 304 305 305 305 305 305 305 305 304 303 304 305 305 306 307 307 307 307 307 309 309 310 310 310 311 313 315 315 316 316 316 317 317 317 317 318 318 320 322 322 322 322 324 326 325 323 323 323 323 323 323 324 325 325 326 328 328 326 326 329 331 331 332 332 331 330 328 329
301 301 301 301 302 303 303 304 304 304 303 303 303 305 305 304 304 304 304 304 304 304 305 305 305 306 305 305 304 305 305 305 306 306 307 307 307 307 309 309 309 310 310 310 312 313 314 314 314 315 316 316 316 317 318 319 321 323 322 322 321 323 323 321 320 320 321 320 320 322 324 325 325 324 325 326 326 326 325 327 328 329 328 328 330 331 331
301 301 301 301 302 303 303 304 304 304 303 303 303 303 304 305 304 305 305 304 303 304 305 306 306 306 305 305 306 306 306 306 307 307 307 308 308 308 308 308 309 309 309 310 311 312 313 314 313 313 315 315 315 317 318 318 318 319 318 318 319 320 320 321 319 319 319 319 319 323 325 326 325 324 325 327 329 328 327 327 327 327 327 328 331 334 334
301 301 301 302 302 303 303 304 304 304 303 303 303 302 303 305 305 305 304 303 303 304 305 306 306 306 305 306 307 307 306 307 308 308 309 309 308 309 308 308 309 309 309 310 311 312 313 313 313 313 314 315 315 316 317 316 317 317 317 317 319 319 319 319 320 319 318 319 319 321 323 324 324 323 324 326 328 327 328 330 330 330 330 329 330 332 331
301 302 302 302 303 303 303 304 304 304 303 303 303 302 303 304 304 304 304 302 302 304 305 306 306 306 306 306 305 305 306 307 308 309 310 310 309 309 308 308 309 309 309 310 311 312 312 313 312 312 314 316 317 316 316 315 316 317 316 316 318 319 318 317 317 317 319 319 318 318 319 320 321 320 320 322 323 324 326 329 332 333 332 329 328 327 326
301 301 302 302 303 303 304 304 304 304 304 303 303 303 302 302 302 302 303 303 303 305 305 305 306 306 306 305 304 304 307 308 308 309 311 312 310 309 309 308 308 309 309 310 311 311 312 312 312 312 314 315 315 315 316 316 315 315 315 314 316 317 318 317 317 318 319 319 319 318 318 319 319 320 321 322 322 323 324 326 328 330 329 326 325 325 325
301 301 302 302 303 303 304 304 304 304 304 303 303 303 303 303 303 302 302 302 303 305 305 305 305 306 306 305 305 305 307 308 307 308 310 312 311 311 311 309 309 310 310 310 311 311 312 312 313 313 313 314 314 314 315 315 314 314 315 314 315 317 318 319 319 319 319 319 320 319 319 319 319 321 322 323 322 324 325 325 325 326 326 325 325 326 326
301 301 302 302 303 303 304 304 304 304 304 303 303 303 304 305 304 302 302 303 304 305 306 305 305 306 306 306 306 306 306 306 306 307 308 309 311 312 312 311 311 311 311 309 310 311 311 312 312 313 314 315 316 316 316 314 314 314 314 314 315 317 318 317 317 316 317 318 319 319 318 318 319 321 322 322 321 322 324 325 324 325 326 326 327 327 326
301 301 301 302 303 304 304 304 304 304 303 303 302 303 305 306 305 303 303 303 304 305 306 305 305 306 306 306 307 307 306 306 306 306 307 308 309 310 312 313 313 313 311 310 311 312 312 312 312 313 314 315 315 316 315 314 314 314 313 313 315 317 317 316 316 316 317 317 318 318 318 318 319 321 323 322 322 323 323 323 324 327 328 328 329 327 327
301 302 302 303 304 304 304 304 304 303 303 302 302 303 305 305 305 305 304 304 304 305 305 305 305 306 306 306 306 306 306 306 306 306 307 308 309 310 312 315 316 316 315 314 314 313 314 314 314 313 314 315 315 315 315 314 313 313 314 315 316 317 318 318 318 318 318 317 318 319 319 319 320 322 323 322 323 323 323 323 325 327 327 328 329 328 327
301 302 303 304 304 304 304 304 303 303 302 302 302 304 305 305 305 305 306 305 305 305 305 304 305 305 305 305 306 305 305 306 307 307 307 308 309 311 314 316 317 317 316 316 315 314 315 317 316 316 316 316 315 314 315 314 314 314 315 316 316 317 318 319 318 318 319 320 320 321 321 320 321 323 323 323 323 323 324 323 325 325 326 327 329 328 328
302 302 303 304 304 303 303 304 303 303 303 303 304 305 305 305 305 305 305 305 306 306 305 305 305 305 305 306 307 306 305 306 307 309 309 309 309 311 313 315 317 316 315 314 314 313 314 316 317 317 316 316 316 316 316 315 315 316 316 316 317 318 319 320 320 320 320 320 320 320 320 321 321 321 321 322 322 323 323 323 323 324 326 328 328 329 327
302 302 303 304 303 303 303 303 303 303 304 305 305 305 305 305 305 305 305 305 305 305 306 306 305 305 304 305 307 307 306 306 307 309 309 309 309 311 312 314 316 317 316 315 315 314 315 316 316 315 315 316 317 316 316 316 316 317 318 319 320 321 321 321 321 321 321 320 320 320 319 319 319 319 319 320 321 321 322 322 323 325 327 327 328 328 327
302 303 303 303 303 303 304 304 304 304 305 306 305 305 306 305 305 305 306 306 306 305 305 305 306 307 306 305 306 307 307 307 308 309 310 310 311 313 313 314 314 315 315 315 314 315 316 317 316 314 315 317 317 315 315 315 316 317 319 321 322 322 322 322 322 322 322 321 320 321 320 320 319 319 319 319 320 322 323 322 322 325 327 327 326 325 324
302 303 303 303 303 303 304 304 305 305 305 305 304 304 305 305 306 306 306 307 306 306 306 306 307 308 307 306 306 307 308 308 308 310 312 312 313 314 315 315 314 314 314 314 314 315 316 316 316 315 315 316 316 315 314 314 316 318 320 322 322 322 321 321 321 321 322 321 321 321 321 321 320 320 320 321 322 324 324 323 323 325 327 327 325 323 322
302 302 302 302 303 304 304 304 304 305 304 304 304 305 305 305 305 306 306 306 306 306 306 307 307 307 307 307 306 307 309 310 310 311 313 313 313 313 314 314 313 313 314 314 315 315 315 314 313 314 314 314 314 313 313 314 317 319 321 321 322 322 322 322 321 322 322 321 321 321 321 320 320 320 321 322 323 323 324 324 325 326 326 324 322 321 322
302 302 302 302 303 304 304 304 304 305 305 304 304 305 305 304 304 306 307 306 306 306 307 307 307 308 309 310 310 310 311 311 311 312 313 313 313 313 314 314 314 314 314 315 316 316 314 313 313 314 314 313 312 313 315 316 318 320 320 321 321 322 322 322 321 321 320 321 321 322 321 321 321 322 322 322 322 323 325 326 326 325 324 322 321 321 321
301 301 302 302 303 303 303 304 304 305 306 305 304 304 305 304 304 305 306 305 306 307 308 308 308 309 310 311 312 312 312 312 312 312 313 313 313 313 313 313 314 314 314 314 315 315 314 314 315 315 314 313 313 315 317 319 320 320 320 321 321 321 321 322 322 321 320 320 321 320 320 321 322 321 321 322 322 323 324 325 324 321 320 320 320 320 319
302 301 301 303 303 302 302 304 304 304 305 305 305 305 305 304 304 305 305 304 305 308 309 309 310 310 311 312 312 311 312 312 312 312 312 312 312 312 312 313 314 314 314 314 314 314 314 314 315 314 313 314 316 317 318 319 320 320 320 321 321 321 321 321 321 321 321 321 321 320 320 321 320 320 320 320 320 320 321 321 320 320 320 321 321 320 318
302 300 300 302 304 303 302 304 305 304 305 305 305 305 304 304 304 304 304 304 305 307 310 311 311 312 312 312 312 311 311 312 312 312 312 312 312 312 313 313 313 314 314 314 314 314 314 313 314 315 315 315 316 317 318 319 319 321 322 322 322 321 321 321 321 321 322 322 321 320 320 321 320 320 320 320 319 318 318 318 319 320 321 321 321 319 318
301 300 300 303 304 303 303 303 304 304 304 304 304 304 304 304 304 304 305 307 309 310 311 312 312 313 312 313 312 312 311 312 312 311 312 313 312 312 313 313 312 312 313 313 313 313 314 315 315 316 316 315 316 317 318 319 320 321 322 322 322 321 321 322 321 322 322 323 322 322 322 322 322 322 322 322 321 319 317 317 317 317 318 318 318 318 318
300 300 301 302 303 303 303 303 303 303 303 303 303 303 304 305 305 305 307 310 311 311 311 311 312 312 312 311 311 311 311 311 311 311 312 313 312 312 313 313 313 313 313 313 313 314 314 315 315 315 314 314 315 317 319 319 320 320 321 321 321 321 322 322 322 322 323 323 323 323 323 322 322 322 322 323 322 319 316 315 316 317 316 317 318 319 319
299 300 301 302 303 303 303 303 303 304 304 303 303 304 305 305 305 306 308 310 311 311 311 311 310 309 309 309 309 309 310 311 311 311 311 312 312 312 312 313 313 313 314 316 316 316 315 315 315 315 315 315 317 318 319 319 319 320 320 320 321 321 321 322 322 322 323 323 323 322 322 321 321 321 322 321 320 317 316 316 318 318 318 319 319 320 320
299 299 301 303 303 303 303 303 304 304 304 304 304 305 306 306 306 307 309 310 311 310 310 310 309 307 307 308 309 309 309 310 311 311 311 312 312 313 313 314 314 316 317 318 318 317 317 317 316 316 317 317 318 318 319 319 320 320 320 320 320 320 321 321 322 322 322 322 323 322 321 320 320 320 320 319 318 318 318 318 318 318 319 319 320 320 320
300 301 302 302 302 302 302 303 303 304 304 304 304 305 305 306 307 309 310 310 310 309 309 309 308 307 308 309 309 309 310 311 311 312 312 313 313 314 315 316 317 318 318 318 317 317 317 318 318 318 318 318 319 318 318 318 318 319 319 319 319 319 320 320 321 321 321 321 321 321 320 320 319 319 320 320 320 320 320 319 318 318 319 319 319 319 319
Wind_Speed
25 26 28 30 32 35 36 39 39 41 39 29 21 14 2 1 3 3 6 8 2 4 1 1 1 1 1 2 2 2 2 2 2 1 1 3 2 2 2 3 3 3 2 2 3 3 3 3 3 2 3 4 3 3 4 4 4 4 3 3 3 1 1 2 1 0 1 2 2 2 1 1 2 0 1 3 2 1 2 1 2 3 3 3 2 3 3
24 25 27 30 32 34 36 38 39 39 35 25 15 7 0 1 4 4 7 10 1 4 1 1 2 1 1 1 1 2 2 3 3 3 3 2 1 2 2 2 2 1 0 2 3 2 2 3 2 1 2 2 1 2 5 6 6 4 2 4 5 3 1 3 3 2 2 2 2 2 2 3 3 2 2 2 3 5 4 3 1 2 3 3 3 6 3
25 25 27 30 31 34 36 38 39 37 32 23 11 2 2 2 1 3 6 9 3 3 1 0 2 1 1 0 2 2 2 3 2 4 4 3 2 3 2 1 1 0 0 1 1 1 0 1 2 1 1 1 0 0 4 7 7 3 0 2 6 3 2 4 5 6 6 6 5 3 4 3 2 3 4 3 5 7 4 3 2 4 3 3 4 6 3
24 25 27 29 30 34 36 38 39 35 28 20 9 2 2 2 1 1 3 5 4 2 2 2 0 1 1 0 1 2 2 3 2 2 3 3 4 4 3 1 2 1 1 1 1 1 1 1 1 2 2 2 0 1 2 4 4 4 5 5 5 3 1 2 5 7 6 6 3 0 2 5 4 5 7 5 4 5 4 3 3 4 4 4 5 3 3
23 24 26 28 30 33 36 37 39 33 24 17 9 2 1 1 1 2 2 2 2 2 2 4 3 1 0 0 1 2 3 4 3 1 0 3 5 3 2 1 1 1 2 2 1 1 1 1 1 2 1 1 1 1 1 3 3 6 6 3 2 3 3 3 4 4 1 2 2 0 1 5 5 7 9 7 5 6 6 4 3 4 4 5 4 3 4
22 23 25 28 29 32 35 37 38 32 21 15 9 1 0 2 1 1 2 1 1 2 3 5 4 2 1 1 1 3 3 4 3 2 2 4 6 3 1 2 4 5 2 1 2 2 1 1 1 1 0 1 1 1 1 1 1 3 3 0 1 3 3 3 3 2 2 2 1 0 1 2 4 7 9 8 7 9 9 4 4 6 5 5 1 6 7
21 22 24 27 28 31 34 36 38 33 19 12 9 3 1 3 1 1 2 1 1 2 4 4 2 3 3 2 3 4 4 4 3 3 4 4 6 5 1 3 8 9 5 2 2 2 1 1 2 2 1 1 1 2 2 1 0 2 3 1 0 2 2 2 3 3 4 2 0 0 2 4 4 4 6 7 7 7 6 3 4 6 6 5 1 5 10
21 21 22 25 27 30 33 34 37 34 21 12 10 6 3 2 1 2 3 1 1 2 3 3 0 2 4 2 3 4 4 5 5 3 2 3 6 6 5 8 12 9 5 1 2 2 2 2 1 0 1 1 1 2 2 2 2 2 2 1 1 1 2 2 2 3 3 2 2 3 3 4 5 4 2 3 4 4 3 2 3 4 4 4 3 5 9
20 21 22 24 25 28 30 32 35 34 25 14 8 5 5 2 1 2 2 1 3 3 2 2 1 2 3 2 3 3 3 6 7 4 2 2 4 6 8 10 10 6 1 4 4 4 5 6 6 4 3 3 2 1 1 2 3 2 1 0 1 1 2 1 1 3 2 2 3 4 4 4 4 3 5 6 5 4 3 2 3 4 4 4 3 5 7
18 20 21 23 24 25 27 30 32 32 28 17 6 4 8 4 1 1 2 1 3 3 2 2 0 1 2 2 3 3 2 5 6 3 1 0 3 5 9 8 6 2 3 5 6 8 9 9 9 7 6 7 6 4 3 3 1 2 2 1 1 2 4 3 2 3 3 2 2 4 4 3 3 3 6 9 7 5 3 2 5 6 5 4 5 5 5
18 18 19 20 22 23 24 27 29 30 29 20 8 5 8 5 1 2 2 1 3 3 1 2 2 1 2 4 3 3 3 6 5 2 1 2 2 5 8 7 4 1 2 3 8 10 10 10 9 7 7 8 7 4 5 3 1 1 2 2 1 2 4 3 2 2 3 2 2 3 4 6 3 1 1 4 7 9 7 5 6 7 6 3 4 4 4
17 17 18 18 20 21 23 24 25 26 26 20 11 8 9 6 1 2 2 1 2 3 1 3 3 2 4 5 4 3 5 6 5 3 4 5 5 6 5 5 4 2 3 9 11 9 7 5 4 4 6 6 2 2 3 2 2 2 1 2 3 4 3 2 1 1 2 3 3 4 6 4 1 2 0 1 2 5 5 3 4 7 7 6 6 8 8
16 16 16 17 18 19 20 21 23 24 23 20 14 12 14 9 2 1 2 1 1 2 2 2 2 3 5 6 6 6 7 8 7 6 7 6 6 5 3 3 4 6 9 12 11 6 2 2 1 2 2 1 2 5 5 4 4 3 2 2 3 5 4 2 2 1 2 4 5 4 2 1 1 1 2 3 3 4 1 5 6 7 8 8 8 11 9
15 15 16 15 16 17 18 19 21 21 22 19 15 15 17 13 4 1 1 1 1 1 1 1 2 4 6 6 7 7 6 7 6 3 3 3 4 5 4 4 6 8 9 8 6 2 1 1 0 1 1 1 1 3 3 4 5 5 3 1 2 5 4 3 2 1 1 3 4 2 2 2 2 2 3 3 2 3 3 5 5 5 6 7 8 9 7
14 14 15 15 14 15 17 18 19 20 20 18 14 15 18 16 8 2 1 2 1 0 0 1 2 5 6 5 6 6 5 5 5 3 2 2 4 5 4 6 10 9 6 3 2 1 1 1 2 3 2 1 2 2 1 2 3 5 4 2 3 3 2 2 3 2 1 2 2 2 3 3 4 5 3 2 1 3 4 3 4 4 6 8 8 8 5
14 13 13 13 14 14 15 16 17 19 20 17 13 13 17 17 12 5 0 1 2 0 1 2 2 3 5 4 3 4 3 4 4 4 3 2 3 6 6 8 9 8 4 1 1 1 0 1 2 3 2 2 2 2 1 2 2 3 4 4 6 5 2 2 3 2 3 3 3 4 5 3 3 5 1 2 1 4 5 3 6 4 5 8 9 7 5
14 13 12 12 12 13 13 14 15 16 18 18 14 12 15 16 14 9 2 0 2 1 0 2 2 2 2 2 1 2 2 3 3 2 2 3 5 8 9 9 8 6 4 2 0 0 1 1 1 2 2 0 0 2 1 2 3 2 2 3 6 5 3 2 3 3 4 5 4 3 3 2 3 4 1 3 3 5 4 5 6 2 4 7 9 8 7
12 12 12 11 11 12 12 13 14 14 16 18 13 9 12 15 13 9 3 0 1 1 0 1 2 1 1 1 2 2 3 2 2 1 3 3 3 6 9 8 6 5 5 3 0 0 1 1 0 1 2 0 1 1 1 2 3 3 3 3 4 3 2 1 2 3 4 5 4 2 2 2 3 3 2 4 4 4 5 6 3 1 4 6 8 8 7
11 11 11 11 10 11 11 11 13 13 14 17 13 7 8 13 13 9 4 1 0 1 1 1 1 1 1 1 3 2 2 1 2 3 3 1 3 7 7 4 2 4 4 2 1 1 0 1 1 1 1 2 0 1 1 2 1 2 3 3 2 2 2 1 1 2 2 3 3 2 2 1 1 2 4 3 4 4 4 3 1 1 4 6 7 7 7
11 10 10 10 9 9 10 10 11 12 12 15 15 8 6 11 13 10 4 1 1 3 3 2 3 2 1 1 0 1 1 0 2 3 2 1 5 8 4 2 1 4 3 2 1 1 0 1 1 1 1 2 1 1 0 1 1 1 1 1 1 2 3 2 2 2 1 1 2 2 2 0 3 5 4 2 4 2 1 1 1 2 3 5 6 6 7
11 10 10 10 9 8 9 8 10 11 11 13 15 11 6 8 12 10 4 1 1 2 1 0 1 2 3 3 4 4 3 3 2 2 2 3 5 5 2 1 3 3 3 2 1 1 1 1 1 0 1 1 0 1 1 1 1 1 1 1 1 0 1 1 2 2 2 2 3 2 1 1 2 3 3 3 3 1 3 2 2 2 3 4 5 6 7
10 10 9 9 8 8 8 7 8 9 10 12 14 11 6 8 13 12 6 3 5 5 5 6 8 10 12 12 10 8 8 9 8 5 4 3 2 2 2 3 3 2 3 3 1 1 1 0 0 0 0 0 0 0 0 1 2 1 1 0 1 1 2 1 1 1 2 2 2 1 1 0 3 4 4 6 7 4 3 4 5 4 3 4 4 5 7
9 9 9 8 7 7 7 7 7 8 8 11 12 10 7 9 13 13 7 3 5 6 8 9 10 10 9 6 3 4 6 8 9 8 7 4 1 1 2 2 3 2 2 2 2 2 2 1 1 1 0 0 0 1 1 1 0 1 1 1 1 2 2 1 0 1 2 3 3 2 3 4 5 5 6 8 10 6 4 5 6 5 4 4 4 4 6
8 8 8 8 7 7 6 6 6 7 7 9 11 10 9 9 11 12 6 1 2 3 2 2 3 3 1 1 4 5 5 4 5 7 9 8 3 1 1 1 3 3 2 3 3 2 2 1 1 1 0 1 1 0 1 1 0 1 0 1 2 1 1 2 0 1 1 2 1 2 6 7 7 7 6 7 8 6 4 5 5 4 3 3 3 3 6
7 7 7 7 7 7 6 5 6 7 7 9 11 11 10 9 9 8 4 1 2 2 1 1 1 1 1 6 9 8 4 5 5 5 8 11 9 5 1 2 3 3 4 5 4 2 2 1 1 1 1 1 1 1 0 0 1 1 1 0 1 0 2 2 1 0 2 1 2 7 10 8 6 6 5 5 5 4 4 3 2 2 2 2 2 4 6
7 6 7 7 7 6 6 5 5 6 7 9 10 11 10 8 5 4 2 2 2 0 1 2 1 1 5 9 8 4 3 5 7 7 9 12 12 10 8 7 5 3 4 4 2 2 2 1 1 2 0 1 1 1 1 1 1 0 1 1 1 1 3 1 0 2 3 1 4 11 11 5 3 5 5 4 4 3 1 1 2 4 5 4 4 4 5
7 7 7 7 6 6 5 4 5 6 6 8 10 10 7 3 4 6 5 3 2 0 1 2 1 3 7 7 6 4 3 4 5 7 8 9 10 10 10 8 5 3 3 3 1 1 1 1 1 1 1 1 2 2 1 1 2 2 2 2 1 1 2 1 0 2 1 1 5 8 7 5 7 9 8 5 4 3 2 3 4 5 6 6 7 5 3
8 7 7 6 6 6 5 4 4 5 6 7 6 4 3 8 9 10 10 7 3 1 2 2 4 6 6 5 5 7 5 4 6 7 7 8 8 9 9 6 4 2 2 2 1 1 1 2 1 1 1 1 2 2 1 1 2 3 3 3 3 3 3 2 0 2 3 3 5 4 2 6 9 10 9 6 4 4 3 1 2 3 5 6 8 7 5
7 7 7 6 6 6 5 5 4 3 4 5 3 3 5 7 6 7 10 11 6 2 2 4 4 3 3 4 6 7 6 5 7 7 7 7 7 8 8 6 5 3 2 2 2 2 2 3 2 2 1 1 2 3 2 2 4 4 3 5 5 3 2 1 3 4 4 4 6 3 3 6 9 11 12 7 3 3 5 5 3 0 2 3 5 6 7
7 7 6 6 6 6 5 5 4 2 3 3 1 2 2 1 2 2 6 11 10 3 2 3 2 1 3 4 5 5 7 8 7 7 8 7 6 7 7 6 4 3 2 2 2 2 2 2 2 3 3 2 2 3 2 3 5 2 2 3 4 2 1 1 2 3 4 4 5 4 5 6 8 9 9 6 3 2 3 3 2 2 2 2 2 3 4
7 6 5 5 5 5 5 5 3 2 2 2 1 1 1 0 2 4 6 10 10 4 1 2 3 2 3 2 2 5 10 10 6 5 6 6 5 6 7 6 4 4 4 3 2 2 2 2 2 3 3 3 3 3 2 4 6 3 1 0 1 1 2 3 2 4 5 5 7 8 7 6 5 5 6 5 3 3 4 4 4 5 4 3 2 3 3
7 6 5 5 4 4 4 4 3 3 3 2 2 3 4 4 4 4 6 8 7 3 1 2 2 2 2 1 2 6 10 8 5 3 2 3 3 4 6 6 4 4 4 3 2 2 3 4 5 5 4 3 3 3 4 6 7 3 1 1 2 1 2 5 7 7 6 4 6 9 9 7 5 5 7 9 9 7 7 7 4 4 4 3 2 2 2
7 5 5 4 4 3 4 3 3 3 3 4 5 6 7 8 7 7 7 6 4 0 0 2 2 1 2 2 2 5 7 4 2 2 0 2 1 2 4 4 2 3 5 4 2 2 2 3 5 5 4 2 3 4 6 8 8 6 4 5 7 7 7 7 7 8 6 4 4 6 9 9 9 8 8 9 10 8 7 7 5 3 4 4 4 4 4
7 5 5 4 4 3 3 3 2 2 3 5 5 4 3 4 5 6 7 5 2 1 1 1 1 1 3 2 0 4 7 4 2 2 2 1 0 0 2 3 2 3 5 5 3 2 2 2 3 4 3 2 4 6 6 6 6 6 7 8 8 9 8 7 6 7 6 5 5 6 8 9 9 8 7 8 10 9 6 5 6 6 6 7 6 6 5
7 6 5 4 4 4 4 3 2 2 3 4 5 2 0 1 2 3 5 3 1 0 0 1 0 1 3 2 0 3 6 4 2 2 2 1 1 1 1 2 2 2 3 3 2 3 3 3 3 4 3 3 4 6 5 4 4 5 6 7 7 7 8 8 8 9 8 7 6 7 7 8 8 8 8 9 11 9 7 6 8 9 9 8 6 6 6
7 6 5 4 4 4 4 3 3 2 2 2 3 2 1 1 1 2 3 2 0 1 1 1 0 1 2 2 1 3 5 3 1 1 2 1 1 1 0 1 2 1 2 2 3 3 3 3 3 4 4 5 6 6 4 4 6 7 7 8 8 8 9 10 12 12 12 12 11 9 8 9 10 9 8 9 9 8 8 9 9 9 9 8 7 6 7
7 6 5 5 5 4 3 2 4 4 4 3 3 2 1 2 2 2 1 1 1 1 0 1 1 1 1 2 2 3 4 2 2 2 1 1 1 1 1 1 1 0 0 3 3 2 1 2 3 6 6 6 5 4 3 5 8 9 8 9 8 7 8 9 10 11 12 14 13 11 9 10 11 9 7 9 10 7 8 9 10 10 11 11 10 8 8
7 6 6 6 5 3 2 3 3 4 5 5 3 1 1 1 1 0 1 0 2 2 1 1 2 1 1 2 1 2 2 2 2 2 1 1 1 1 0 1 1 0 2 3 1 0 1 2 3 6 8 6 5 5 6 7 8 7 6 7 7 7 7 8 9 10 10 10 10 10 10 10 10 9 8 10 10 8 8 9 9 9 10 9 8 7 7
7 6 5 4 3 2 1 3 4 4 4 4 3 1 1 0 1 1 0 0 1 1 2 2 2 2 3 3 2 1 1 1 2 1 2 2 1 1 0 1 0 1 2 2 1 1 3 3 3 4 6 5 4 5 5 5 4 4 4 5 6 7 7 7 8 9 10 10 11 12 12 12 13 12 10 10 10 9 8 7 7 8 7 5 6 7 7
7 5 3 2 3 3 3 5 7 5 3 2 1 1 1 1 1 1 1 0 1 1 2 1 1 2 3 4 2 0 1 1 2 2 2 1 1 1 1 1 1 1 3 2 1 1 3 3 3 4 4 2 2 1 0 1 2 4 4 5 6 7 7 8 8 10 10 12 13 14 15 16 16 14 12 12 11 9 8 7 6 6 5 5 7 7 7
7 5 2 2 5 6 7 7 6 3 1 1 0 0 1 1 1 1 0 1 2 1 1 1 1 2 3 3 2 1 1 0 1 1 1 1 1 1 2 1 1 2 3 2 1 1 2 3 4 4 2 0 1 1 2 3 5 7 7 6 6 7 8 9 10 11 11 11 11 12 14 16 16 14 12 12 11 8 6 5 5 6 8 9 10 9 9
8 6 4 5 8 8 7 4 2 1 1 1 1 1 1 1 0 1 2 2 1 1 1 2 1 0 1 3 3 1 0 1 1 0 1 1 1 1 2 2 2 1 2 1 2 2 2 3 4 3 1 1 2 4 5 7 8 8 8 8 7 7 8 9 10 12 12 11 10 11 12 14 14 13 12 10 8 6 6 7 9 10 10 10 10 9 10
8 7 6 6 5 4 2 1 1 1 1 1 1 2 2 1 1 1 2 2 1 1 1 2 1 0 1 2 1 0 0 0 0 0 1 1 1 1 1 1 1 1 1 2 2 3 3 4 5 3 1 2 4 6 8 9 8 8 8 8 7 8 9 10 10 12 13 11 11 11 13 13 13 12 10 9 9 9 10 11 13 13 12 11 11 10 8
9 6 3 2 1 1 1 1 1 1 2 2 2 3 3 2 2 3 2 1 1 2 1 1 1 1 1 1 1 0 1 0 0 1 1 1 1 1 1 1 1 2 2 2 3 3 4 5 5 4 3 4 6 8 8 8 8 8 9 9 8 8 9 9 9 10 10 10 9 10 10 9 8 6 6 7 7 7 9 10 11 11 11 12 13 12 9
7 3 1 2 1 1 1 1 1 1 2 2 2 3 3 2 2 3 2 1 0 0 1 1 1 0 1 1 0 0 0 0 1 1 0 0 0 1 2 1 2 2 3 3 4 4 4 4 2 2 4 6 7 8 9 9 8 8 8 8 8 7 7 8 8 8 7 7 6 5 4 2 1 3 5 7 8 8 5 5 10 15 17 16 13 11 10
3 1 1 2 2 1 1 2 2 2 2 2 3 3 3 2 1 1 1 0 0 1 1 1 0 1 0 1 1 1 1 1 1 0 1 1 1 1 1 1 2 2 3 4 5 5 6 4 2 3 5 7 8 9 10 10 9 9 8 8 8 7 7 8 7 6 6 5 3 2 3 6 7 9 11 15 18 19 16 11 8 10 15 16 13 12 13
2 2 1 1 2 2 2 2 1 1 1 1 2 2 2 1 0 0 0 1 1 1 1 1 0 0 0 1 0 0 1 1 1 1 1 1 2 1 1 2 3 3 4 5 6 5 5 4 4 4 6 8 10 11 11 11 11 10 9 7 7 6 6 6 6 6 6 4 2 3 5 8 10 11 12 14 18 20 18 11 4 4 8 10 11 12 13
2 2 1 1 2 3 3 2 1 1 0 0 1 1 1 1 1 1 1 0 0 1 1 1 0 0 1 1 1 1 1 0 1 1 1 1 2 2 1 3 4 4 4 5 6 6 5 5 6 7 9 10 11 12 11 11 12 11 8 6 6 7 6 5 5 6 6 4 4 4 5 7 9 10 12 12 15 18 19 13 7 7 9 9 9 11 11
3 1 0 0 1 2 2 1 0 1 0 0 0 1 2 2 2 1 1 1 1 2 2 2 1 1 1 2 2 2 1 1 1 1 1 1 2 2 2 4 6 6 5 4 5 6 6 7 8 11 12 12 12 11 10 9 9 9 7 6 6 6 6 5 4 3 4 4 4 5 6 7 8 9 9 9 10 13 15 11 8 8 10 9 8 8 10
2 1 1 1 1 1 1 1 2 2 1 1 1 1 2 2 1 1 1 2 2 3 2 2 1 1 2 2 1 1 2 2 2 2 2 3 3 3 3 5 7 6 4 3 4 6 7 8 9 10 12 12 11 10 8 7 7 6 6 6 5 5 5 5 3 0 1 2 4 6 8 8 8 6 5 6 8 11 12 9 7 7 9 9 8 8 9
1 0 1 2 1 1 1 1 2 2 1 1 1 1 1 1 1 1 2 2 2 2 1 1 2 2 1 1 1 1 1 2 2 3 4 4 3 3 5 6 6 5 4 5 6 7 8 8 8 9 9 10 9 8 6 6 6 5 4 5 5 4 4 4 3 2 2 3 4 5 6 7 7 6 5 8 11 11 9 6 5 5 6 7 7 8 8
1 1 1 1 1 1 1 1 0 1 1 1 0 0 0 0 1 1 2 3 2 1 1 2 3 2 1 2 2 1 1 2 3 4 4 4 3 4 5 6 5 5 5 6 7 7 7 7 7 8 8 7 6 6 5 4 4 3 3 4 4 3 3 2 1 2 3 3 3 3 4 5 6 6 6 7 8 7 5 5 5 5 6 6 6 7 7
Wind_Direction
343 343 343 344 347 349 350 353 356 356 354 350 349 346 312 247 318 282 360 9 217 210 144 159 266 197 168 322 232 220 281 255 276 319 264 242 222 226 239 212 214 226 208 183 182 174 171 179 187 197 202 211 208 174 146 146 162 167 149 141 152 152 124 124 115 5 41 35 49 70 66 170 183 119 136 166 170 150 167 192 160 160 175 156 161 254 257
345 344 344 345 348 350 351 353 356 358 355 348 340 339 315 306 299 273 350 6 145 195 239 186 195 212 11 336 260 236 245 236 255 272 259 250 233 241 250 224 220 250 175 169 186 185 187 197 203 198 190 187 156 160 170 174 184 191 184 170 173 185 173 134 142 146 132 153 169 155 181 214 210 138 136 166 123 105 108 102 116 202 199 163 205 250 259
348 346 346 347 349 352 353 354 357 358 354 348 344 332 280 301 256 242 330 2 63 167 318 38 168 133 97 346 337 332 263 237 266 280 272 276 273 262 272 240 202 235 61 145 128 74 224 201 191 179 188 202 356 277 202 202 201 204 309 155 157 162 173 159 164 172 179 190 197 197 183 175 165 145 156 162 141 142 142 116 166 224 193 157 216 249 268
349 348 347 349 351 354 354 354 357 359 354 349 348 307 294 327 11 286 319 8 50 87 14 10 85 99 97 138 42 9 301 297 316 277 267 315 312 274 264 262 206 184 182 159 112 65 14 34 143 171 175 181 249 318 201 202 197 144 117 132 136 122 137 165 177 188 192 187 184 224 139 151 166 171 164 163 154 147 131 129 197 197 152 184 222 244 290
350 350 349 350 353 356 356 354 358 1 357 351 346 287 283 354 348 354 343 357 40 80 57 23 12 13 125 149 31 2 315 312 328 335 60 357 340 295 243 280 259 213 193 171 135 110 99 82 138 172 182 174 239 291 188 165 153 128 124 129 116 125 162 173 173 191 213 102 107 75 171 160 163 162 161 164 157 156 168 190 190 138 147 236 225 162 243
351 352 350 352 356 357 357 355 360 4 1 355 354 306 320 14 43 16 334 307 33 40 7 3 4 17 41 95 39 13 2 353 349 343 329 348 1 351 183 64 13 344 315 191 167 158 139 129 176 184 175 138 139 143 143 130 135 145 138 66 110 142 155 164 160 149 101 80 87 228 165 118 135 156 163 165 167 180 194 194 149 156 209 270 145 151 221
352 353 353 354 356 359 358 357 3 8 7 10 25 39 356 6 52 6 331 325 30 330 327 330 343 28 26 45 53 24 14 13 353 311 308 343 16 13 344 359 351 336 321 278 185 171 170 176 193 189 161 144 152 157 150 115 77 158 128 76 231 160 124 150 164 122 105 97 356 157 123 110 118 139 156 165 172 186 202 189 164 191 243 291 128 203 242
353 354 355 356 357 360 1 0 6 10 13 33 49 41 9 15 37 350 331 344 336 312 330 339 29 46 15 22 43 17 15 14 348 301 286 336 10 16 350 334 329 318 307 283 127 75 353 296 270 240 174 169 173 190 192 156 126 108 109 100 270 204 140 167 169 121 102 65 57 81 89 109 127 133 143 151 149 167 201 206 170 201 263 278 244 250 262
353 353 356 358 359 1 2 3 8 12 20 39 56 33 13 359 295 337 322 355 2 343 351 5 84 56 16 21 23 358 23 10 332 282 241 321 26 23 345 328 319 306 12 78 69 18 328 290 289 298 286 277 277 292 264 203 159 100 89 111 7 76 126 155 181 166 146 51 67 93 84 94 129 184 199 181 165 175 196 188 176 194 223 234 232 260 273
352 354 356 359 0 2 3 5 8 13 25 38 48 18 9 349 268 338 300 317 21 358 340 355 59 96 22 5 348 329 352 351 328 299 241 251 75 26 342 330 318 302 65 50 356 325 301 279 281 287 281 279 276 270 272 267 230 128 132 104 29 116 140 144 186 187 148 88 107 121 121 157 195 228 210 189 182 181 160 163 205 210 204 214 239 260 278
353 355 357 359 1 2 5 6 8 14 24 31 35 23 10 355 323 337 301 190 38 353 331 25 38 66 3 343 334 303 311 336 344 3 311 293 350 350 337 335 329 308 77 2 319 301 283 272 274 272 269 274 272 250 239 249 351 76 145 120 98 136 134 134 186 195 153 124 118 134 189 214 195 88 193 181 182 186 181 187 207 205 200 222 267 276 274
353 355 357 0 2 4 6 6 7 14 21 26 33 31 13 357 296 326 335 65 21 355 35 45 28 354 333 335 332 311 312 320 318 281 264 282 309 324 334 346 351 7 341 324 315 299 270 250 246 244 254 263 243 153 181 173 35 4 45 124 136 134 124 120 130 142 128 122 145 187 214 222 104 56 32 76 118 165 184 234 235 218 219 231 257 263 256
353 354 357 1 2 4 7 4 4 11 17 23 31 30 19 11 352 339 1 358 19 25 28 20 7 340 339 342 332 316 311 307 292 264 248 257 288 313 338 352 338 327 319 317 317 308 252 168 185 211 239 282 118 108 88 61 32 18 48 99 140 144 137 120 109 109 125 149 183 206 240 305 325 233 157 112 81 103 162 272 257 232 224 215 230 251 253
352 353 356 2 1 1 5 4 3 8 14 20 29 31 25 22 18 354 349 335 40 79 282 303 10 352 346 349 337 323 319 324 317 276 227 240 275 296 310 314 315 315 310 306 308 304 153 124 199 176 99 359 147 128 87 59 40 34 34 24 133 149 149 141 151 176 157 173 192 226 322 286 218 199 162 165 175 150 183 260 259 226 207 191 211 245 250
350 353 355 358 359 1 6 5 3 6 11 17 28 33 28 24 19 8 327 331 342 131 38 30 14 341 335 341 346 341 338 346 341 306 279 271 267 279 302 314 312 307 297 289 304 344 138 178 179 171 174 192 183 179 147 116 60 35 30 56 100 122 156 172 181 183 151 179 195 225 252 237 212 219 207 175 201 143 150 237 260 230 206 196 210 238 238
346 350 354 354 356 1 5 5 3 4 7 12 25 34 28 23 18 13 340 314 335 42 54 10 316 308 319 322 353 4 352 350 342 310 301 333 319 312 319 320 312 305 299 311 23 34 110 195 188 185 190 174 158 149 133 170 136 47 42 79 87 79 76 128 156 148 156 193 207 214 228 229 222 234 207 87 145 134 128 244 265 236 204 195 202 223 218
343 346 350 353 356 359 1 3 4 2 2 6 18 32 29 22 16 8 356 275 336 319 54 352 298 270 311 313 336 5 340 330 337 319 314 336 332 326 329 331 327 324 333 341 332 27 90 136 163 192 183 126 154 158 126 163 161 120 87 96 90 80 73 127 171 161 161 193 211 223 236 238 250 263 44 89 175 155 157 256 270 228 192 184 188 208 205
339 342 346 349 354 356 357 1 3 1 1 5 14 34 31 23 16 7 1 200 330 310 176 17 333 314 33 8 328 343 342 331 332 307 292 301 326 329 329 333 337 344 355 2 12 19 98 145 145 218 181 132 291 215 147 169 176 147 130 114 92 88 78 110 193 172 163 196 216 243 249 243 271 289 107 133 171 179 209 247 274 178 193 186 191 203 186
335 336 341 344 348 354 355 358 2 1 360 3 10 26 27 21 20 15 10 42 337 310 340 10 315 247 20 310 273 286 313 322 354 334 297 284 2 326 302 281 317 338 347 6 44 35 84 148 78 330 194 138 169 282 135 152 166 123 135 139 129 145 131 92 178 161 147 193 224 264 273 268 50 87 109 144 197 209 223 249 315 199 201 193 200 203 177
332 332 336 339 343 349 352 353 359 2 358 359 5 13 16 20 22 18 11 22 285 290 302 292 252 247 318 357 329 23 10 15 35 5 321 327 348 331 293 178 33 342 340 359 30 50 268 134 90 323 272 103 77 295 163 128 62 58 158 166 127 169 181 170 163 153 122 148 189 233 274 5 121 127 124 177 226 238 311 313 272 242 206 193 202 201 184
331 330 330 334 338 344 348 347 352 359 357 353 359 4 6 16 18 10 347 264 250 284 316 355 270 274 281 289 298 299 288 287 308 332 302 295 322 333 338 339 334 344 3 353 11 85 21 36 92 327 303 68 328 248 170 144 130 66 333 321 84 94 240 192 166 175 181 175 182 196 118 89 156 179 190 222 227 18 19 317 268 265 220 203 205 199 193
326 325 324 329 334 336 339 339 346 356 353 346 353 1 359 3 10 6 341 255 239 256 271 285 291 286 283 286 282 265 256 261 260 251 256 281 303 309 307 314 321 348 357 336 319 95 36 13 154 319 172 176 252 145 122 197 164 99 23 269 144 23 1 353 182 189 214 228 246 295 343 308 256 256 263 274 285 311 315 274 276 278 240 215 212 197 191
321 322 321 324 327 329 332 337 344 349 344 341 349 357 346 345 357 358 344 265 246 261 267 277 286 285 284 288 269 243 257 259 244 229 222 224 281 296 262 304 337 344 1 10 8 352 347 6 358 332 122 312 293 125 142 236 192 65 54 92 72 37 15 342 169 164 289 276 259 286 299 283 268 255 251 268 280 282 262 247 256 265 242 214 217 198 179
315 317 317 317 318 319 323 331 335 334 334 338 345 347 340 340 348 350 345 294 280 289 257 264 294 281 251 348 321 309 294 248 221 213 207 206 227 297 150 92 357 340 354 7 353 312 296 329 320 278 91 40 297 265 170 190 102 37 205 148 107 93 326 321 90 126 289 260 178 327 308 292 287 284 272 268 266 256 244 238 241 251 237 210 212 183 161
306 309 312 313 311 310 315 324 326 326 332 339 343 343 340 340 345 348 346 342 340 334 313 334 324 217 277 315 312 303 269 219 222 224 208 207 219 240 277 5 360 338 323 327 323 292 279 294 287 284 48 84 275 300 355 145 78 31 315 135 98 72 313 336 60 174 278 253 14 342 313 278 261 273 273 270 266 254 249 243 210 167 149 162 155 145 153
298 305 307 307 304 301 307 316 315 315 328 340 343 339 335 335 350 12 5 326 315 298 303 312 247 225 306 314 310 296 245 232 236 231 218 216 222 235 262 297 315 314 307 303 294 289 300 307 296 286 315 61 334 310 329 341 342 269 264 300 2 315 305 319 280 277 269 227 11 354 337 305 287 306 292 273 271 263 233 167 150 138 128 120 115 129 155
288 296 298 298 299 295 292 294 301 308 325 341 341 336 339 20 73 66 40 358 314 237 313 300 275 311 316 310 306 317 309 258 241 233 229 228 226 230 245 263 278 300 314 300 267 262 284 275 280 280 280 354 331 291 276 305 299 260 252 249 233 267 261 195 193 293 290 44 23 4 344 305 302 315 321 323 306 282 207 153 155 153 142 131 123 120 135
277 284 287 287 290 290 282 277 285 303 326 340 346 356 86 106 96 70 47 33 12 327 299 279 286 306 311 298 302 321 326 290 268 257 242 232 223 220 227 236 244 261 290 294 297 320 288 277 304 313 284 296 286 261 239 221 237 244 233 206 204 233 221 179 291 281 280 335 2 4 298 276 288 305 322 336 324 302 296 244 175 164 155 146 137 135 141
271 276 278 280 285 284 277 275 274 289 324 342 10 103 118 113 98 61 37 27 17 340 283 283 281 289 312 312 307 315 326 312 285 263 248 240 225 215 217 221 227 232 245 276 288 287 278 283 294 290 295 338 319 289 264 230 237 237 196 185 201 215 196 202 315 292 280 324 348 343 289 286 294 303 308 307 286 291 310 317 324 238 162 154 145 144 148
269 271 271 277 283 277 270 272 270 266 308 335 13 128 151 186 218 268 348 1 2 353 297 308 308 307 331 319 297 303 323 322 296 260 244 237 225 213 208 210 221 229 237 257 264 262 266 271 268 263 263 275 286 283 269 248 255 254 129 182 217 219 102 53 313 289 291 319 327 298 263 271 285 292 290 276 237 243 278 287 282 248 216 178 161 161 158
264 269 273 276 279 275 268 267 264 255 277 320 9 159 177 247 246 256 303 337 345 339 272 288 292 296 321 310 271 312 324 322 308 274 242 225 218 206 195 195 207 212 218 232 243 249 256 249 246 258 254 227 237 259 264 258 263 269 62 261 254 45 26 354 304 274 281 300 304 291 274 271 290 302 300 305 323 309 279 254 216 207 211 204 194 198 196
258 263 270 272 273 272 264 253 241 234 245 266 268 259 266 281 283 268 284 314 328 328 311 316 303 302 339 338 309 321 320 311 306 301 232 195 185 180 183 193 207 201 205 226 231 220 232 235 239 252 251 212 220 256 255 251 257 257 227 318 334 351 328 316 305 293 288 295 302 302 301 303 317 320 315 320 327 320 296 283 257 200 184 186 189 181 177
251 253 260 266 270 263 249 242 240 249 278 294 289 279 271 269 264 252 255 279 304 331 66 339 319 307 327 320 330 345 338 320 318 352 35 163 156 163 175 189 207 195 197 211 218 218 231 224 226 241 247 224 233 257 255 249 251 250 247 274 295 297 293 293 289 285 284 272 261 277 290 299 308 313 311 308 306 299 288 288 285 247 184 184 193 183 167
244 248 252 256 256 244 229 225 237 270 305 298 286 279 277 277 271 250 239 247 268 112 102 358 328 308 311 289 341 18 3 350 343 1 23 122 174 255 165 157 172 195 197 197 205 230 238 218 221 237 238 204 221 244 253 248 241 243 249 257 268 274 278 278 270 267 271 263 245 248 263 277 291 300 298 294 293 288 274 257 251 238 216 206 201 186 171
233 237 241 242 235 218 201 190 203 258 289 276 260 244 225 319 292 244 215 210 235 251 135 39 349 317 323 310 105 29 4 351 342 341 338 331 327 324 158 160 185 199 185 179 201 230 222 205 219 234 218 192 214 229 233 223 212 227 248 253 250 254 265 275 279 279 278 272 263 263 269 275 281 283 283 287 289 285 270 246 231 227 225 216 193 177 182
220 226 230 224 206 188 174 176 206 238 249 224 199 181 147 63 73 185 184 174 238 295 341 2 301 288 322 313 336 354 343 338 353 330 294 283 315 342 291 211 211 172 145 176 209 225 208 188 209 226 209 208 228 229 213 217 233 240 248 254 255 256 264 274 282 287 289 288 283 277 274 275 277 277 276 278 279 273 263 251 234 223 226 220 192 181 193
209 215 207 190 179 170 163 194 231 238 222 187 153 132 122 98 92 112 154 182 201 186 114 295 259 258 300 285 300 334 331 332 359 347 319 313 329 330 308 264 243 115 176 218 221 230 188 171 219 242 231 222 232 229 202 224 245 251 257 264 269 271 272 278 285 289 291 292 290 285 276 269 268 266 265 268 269 259 246 240 228 217 219 216 199 185 184
198 201 193 180 172 170 185 209 219 221 211 199 186 160 148 159 151 59 57 210 208 181 167 251 252 222 227 248 279 347 342 338 350 348 356 355 316 286 254 258 270 346 277 252 226 198 237 203 222 248 249 239 236 236 233 241 253 264 274 283 289 291 289 290 293 291 290 291 289 288 284 277 270 263 258 261 262 255 243 239 233 227 228 221 194 171 164
193 192 192 186 177 175 191 178 159 140 142 163 179 186 139 159 261 267 130 184 238 206 203 240 246 203 214 243 269 12 349 310 321 356 17 6 343 350 341 289 325 333 277 262 114 102 256 242 229 253 258 241 221 230 239 250 270 288 292 289 292 292 290 291 289 282 277 275 277 279 281 276 271 267 261 259 260 254 245 241 239 237 235 216 172 154 148
182 172 171 191 183 164 148 148 146 135 117 118 152 220 167 171 225 235 121 91 274 245 211 229 237 202 222 257 289 53 151 290 332 354 357 342 340 339 308 299 358 320 266 247 101 30 276 261 246 257 262 229 158 171 245 270 288 299 299 293 294 293 288 285 283 278 274 273 272 272 269 266 266 265 261 260 262 256 244 234 226 216 200 173 156 148 140
168 163 167 178 164 148 136 133 135 129 94 86 94 186 189 187 206 213 192 236 252 240 199 205 235 211 202 223 247 241 177 312 358 340 316 323 346 300 289 328 7 292 256 249 30 348 279 260 256 258 260 162 71 358 345 326 320 324 321 310 303 297 290 286 287 286 283 279 275 272 268 265 264 261 257 258 260 255 237 210 189 180 172 163 155 145 133
170 168 150 134 138 136 130 129 134 123 97 102 123 187 219 250 171 189 218 241 264 267 184 194 228 315 138 183 216 240 110 90 94 282 294 324 2 306 308 351 359 276 251 327 353 301 255 261 267 254 185 195 294 317 328 324 322 320 312 304 300 297 293 293 293 292 290 285 280 277 272 267 262 257 251 246 239 218 192 176 173 174 170 157 143 132 128
159 153 136 122 128 138 140 150 216 174 140 121 135 167 189 244 250 210 223 232 229 229 199 189 205 246 147 175 204 238 122 120 99 245 268 304 2 343 315 318 278 273 332 359 302 254 245 259 267 261 238 287 307 318 320 316 314 309 301 297 297 296 294 292 289 291 294 293 288 282 277 271 264 257 242 221 200 188 184 181 176 170 159 140 120 108 108
135 134 125 99 99 198 192 163 170 189 173 165 172 183 195 213 207 200 200 193 190 201 192 179 196 214 161 149 169 165 149 165 232 235 244 301 17 329 255 239 258 304 319 290 256 252 257 260 265 282 314 320 320 320 318 316 316 311 303 299 299 300 300 296 290 290 296 300 298 296 290 277 262 248 226 204 195 195 192 179 158 134 113 99 92 88 87
126 114 101 85 82 232 210 134 125 212 209 190 187 197 205 205 194 188 181 142 154 185 139 156 198 230 65 93 148 144 69 80 227 221 234 339 298 236 242 280 314 312 290 265 254 255 257 253 258 309 326 326 324 321 318 317 313 304 299 300 303 309 315 315 308 303 305 308 311 319 328 339 74 87 75 62 46 33 40 95 109 106 104 100 95 99 111
111 106 143 134 126 177 208 151 142 185 216 208 199 203 205 203 193 175 155 132 331 13 48 73 219 255 46 95 100 61 35 342 277 206 84 325 281 250 237 288 288 270 259 259 252 248 254 266 302 332 327 326 322 314 310 311 308 298 292 294 302 314 330 335 332 323 314 314 325 26 64 78 87 88 83 75 65 57 55 57 74 107 120 124 125 129 134
96 110 157 163 132 148 191 199 191 209 226 218 218 217 207 190 171 203 199 239 278 351 47 64 107 246 40 65 58 10 35 354 301 264 183 262 285 293 274 263 258 246 250 259 259 257 268 290 314 320 322 323 318 309 306 308 304 295 284 282 292 306 322 338 349 346 337 339 23 89 102 104 104 100 95 90 86 86 88 88 68 64 88 103 115 123 130
126 152 190 172 150 169 192 205 221 245 234 261 266 230 173 176 215 231 220 191 346 43 59 70 91 58 45 31 333 319 348 325 270 266 266 282 288 292 266 253 254 250 249 255 264 277 292 309 318 317 316 314 308 302 301 302 299 292 282 279 293 304 309 323 343 348 348 5 43 65 83 97 102 101 100 98 97 100 106 113 112 95 96 108 124 129 132
103 139 174 55 169 205 202 183 240 252 227 253 270 183 169 194 220 221 97 90 89 78 68 56 36 10 11 20 9 344 316 246 248 275 273 238 244 255 260 260 263 262 253 250 270 293 306 313 313 308 303 299 298 298 297 294 290 284 278 280 293 304 303 301 316 342 355 19 50 62 67 70 73 83 94 99 100 104 111 120 130 132 139 154 157 141 138
63 83 220 224 223 211 172 164 195 215 204 193 205 189 183 204 220 171 125 132 121 103 88 66 47 42 39 35 16 319 273 244 234 242 236 229 231 239 248 255 260 263 267 282 300 302 301 301 298 294 292 293 296 298 297 291 282 277 279 286 296 301 291 279 271 300 54 69 82 86 84 79 72 70 84 96 99 104 112 123 139 149 156 165 161 147 144
68 205 238 231 225 212 183 179 189 199 195 182 167 159 166 173 140 114 127 132 123 119 124 88 70 70 82 137 223 265 260 232 223 230 233 232 229 235 243 251 261 273 287 297 296 290 287 288 287 284 286 292 294 294 291 285 280 282 293 304 308 301 277 253 213 150 113 95 91 88 88 92 97 104 111 112 110 109 111 116 125 139 153 158 154 148 148
141 201 234 225 194 203 232 244 225 203 218 220 92 69 194 157 88 106 137 149 156 173 167 131 114 115 162 204 214 229 237 235 241 247 244 235 228 234 244 254 267 278 283 285 285 285 287 292 289 282 280 285 293 300 303 296 292 303 319 319 320 323 305 271 199 132 115 107 111 110 97 94 103 116 120 117 117 118 120 122 130 143 152 151 147 148 151